Time,TemperatureF,DewpointF,PressureIn,WindDirection,WindDirectionDegrees,WindSpeedMPH,WindSpeedGustMPH,Humidity,HourlyPrecipIn,Conditions,Clouds,dailyrainin,SoftwareType,DateUTC
2013-01-17 00:11:00,13.6,9.0,30.13,North,360,0.0,-999.0,81,-99.99,,,0.00,weatherlink.com 1.10,2013-01-17 05:11:00,
2013-01-17 00:26:00,12.9,8.0,30.13,NNE,12,0.0,-999.0,80,-99.99,,,0.00,weatherlink.com 1.10,2013-01-17 05:26:00,
2013-01-17 00:41:00,12.1,6.0,30.13,NNE,17,1.0,-999.0,77,-99.99,,,0.00,weatherlink.com 1.10,2013-01-17 05:41:00,
2013-01-17 00:56:00,11.6,6.0,30.14,East,82,0.0,-999.0,79,-99.99,,,0.00,weatherlink.com 1.10,2013-01-17 05:56:00,
2013-01-17 01:11:00,11.1,5.0,30.15,SSE,163,0.0,-999.0,77,-99.99,,,0.00,weatherlink.com 1.10,2013-01-17 06:11:00,
2013-01-17 01:26:00,10.5,5.0,30.16,South,183,1.0,-999.0,77,-99.99,,,0.00,weatherlink.com 1.10,2013-01-17 06:26:00,
2013-01-17 01:41:00,10.1,5.0,30.17,South,183,0.0,-999.0,78,-99.99,,,0.00,weatherlink.com 1.10,2013-01-17 06:41:00,
2013-01-17 01:56:00,9.7,4.0,30.19,NW,306,0.0,-999.0,79,-99.99,,,0.00,weatherlink.com 1.10,2013-01-17 06:56:00,
2013-01-17 02:11:00,9.2,4.0,30.19,South,184,0.0,-999.0,79,-99.99,,,0.00,weatherlink.com 1.10,2013-01-17 07:11:00,
2013-01-17 02:26:00,8.9,4.0,30.20,South,184,0.0,-999.0,80,-99.99,,,0.00,weatherlink.com 1.10,2013-01-17 07:26:00,
2013-01-17 02:41:00,8.5,3.0,30.21,SW,218,0.0,-999.0,78,-99.99,,,0.00,weatherlink.com 1.10,2013-01-17 07:41:00,
2013-01-17 02:56:00,8.2,2.0,30.21,SW,218,0.0,-999.0,77,-99.99,,,0.00,weatherlink.com 1.10,2013-01-17 07:56:00,
2013-01-17 03:11:00,8.0,2.0,30.23,WSW,257,0.0,-999.0,75,-99.99,,,0.00,weatherlink.com 1.10,2013-01-17 08:11:00,
2013-01-17 03:26:00,7.7,1.0,30.23,WSW,258,0.0,-999.0,75,-99.99,,,0.00,weatherlink.com 1.10,2013-01-17 08:26:00,
2013-01-17 03:41:00,7.3,1.0,30.24,South,175,0.0,-999.0,75,-99.99,,,0.00,weatherlink.com 1.10,2013-01-17 08:41:00,
2013-01-17 03:56:00,6.8,0.0,30.24,SSW,202,0.0,-999.0,74,-99.99,,,0.00,weatherlink.com 1.10,2013-01-17 08:56:00,
2013-01-17 04:11:00,6.4,-1.0,30.24,SSW,205,0.0,-999.0,72,-99.99,,,0.00,weatherlink.com 1.10,2013-01-17 09:11:00,
2013-01-17 04:26:00,6.2,-1.0,30.25,SSW,205,0.0,-999.0,72,-99.99,,,0.00,weatherlink.com 1.10,2013-01-17 09:26:00,
2013-01-17 04:41:00,5.9,-1.0,30.25,SW,231,0.0,-999.0,72,-99.99,,,0.00,weatherlink.com 1.10,2013-01-17 09:41:00,
2013-01-17 04:56:00,5.5,-1.0,30.25,SW,231,0.0,-999.0,73,-99.99,,,0.00,weatherlink.com 1.10,2013-01-17 09:56:00,
2013-01-17 05:11:00,5.2,-1.0,30.26,SW,231,0.0,-999.0,74,-99.99,,,0.00,weatherlink.com 1.10,2013-01-17 10:11:00,
2013-01-17 05:26:00,4.8,-2.0,30.26,SW,230,0.0,-999.0,75,-99.99,,,0.00,weatherlink.com 1.10,2013-01-17 10:26:00,
2013-01-17 05:41:00,4.4,-2.0,30.26,SW,230,0.0,-999.0,75,-99.99,,,0.00,weatherlink.com 1.10,2013-01-17 10:41:00,
2013-01-17 05:56:00,4.1,-2.0,30.26,SW,230,0.0,-999.0,76,-99.99,,,0.00,weatherlink.com 1.10,2013-01-17 10:56:00,
2013-01-17 06:11:00,3.9,-2.0,30.26,SW,231,0.0,-999.0,77,-99.99,,,0.00,weatherlink.com 1.10,2013-01-17 11:11:00,
2013-01-17 06:26:00,3.6,-2.0,30.26,SW,231,0.0,-999.0,77,-99.99,,,0.00,weatherlink.com 1.10,2013-01-17 11:26:00,
2013-01-17 06:41:00,3.3,-2.0,30.27,SW,230,0.0,-999.0,78,-99.99,,,0.00,weatherlink.com 1.10,2013-01-17 11:41:00,
2013-01-17 06:56:00,3.0,-2.0,30.27,SW,230,0.0,-999.0,78,-99.99,,,0.00,weatherlink.com 1.10,2013-01-17 11:56:00,
2013-01-17 07:11:00,2.7,-2.0,30.27,SW,230,0.0,-999.0,79,-99.99,,,0.00,weatherlink.com 1.10,2013-01-17 12:11:00,
2013-01-17 07:26:00,2.6,-3.0,30.28,SW,231,0.0,-999.0,79,-99.99,,,0.00,weatherlink.com 1.10,2013-01-17 12:26:00,
2013-01-17 07:41:00,2.3,-3.0,30.28,SW,231,0.0,-999.0,79,-99.99,,,0.00,weatherlink.com 1.10,2013-01-17 12:41:00,
2013-01-17 07:56:00,2.0,-3.0,30.28,SW,231,0.0,-999.0,79,-99.99,,,0.00,weatherlink.com 1.10,2013-01-17 12:56:00,
2013-01-17 08:11:00,1.8,-3.0,30.28,SW,230,0.0,-999.0,80,-99.99,,,0.00,weatherlink.com 1.10,2013-01-17 13:11:00,
2013-01-17 08:26:00,1.7,-3.0,30.29,SW,231,0.0,-999.0,80,-99.99,,,0.00,weatherlink.com 1.10,2013-01-17 13:26:00,
2013-01-17 08:41:00,1.8,-3.0,30.30,SW,231,0.0,-999.0,80,-99.99,,,0.00,weatherlink.com 1.10,2013-01-17 13:41:00,
2013-01-17 08:56:00,2.0,-3.0,30.31,SW,230,0.0,-999.0,80,-99.99,,,0.00,weatherlink.com 1.10,2013-01-17 13:56:00,
2013-01-17 09:11:00,2.5,-3.0,30.31,SW,231,0.0,-999.0,79,-99.99,,,0.00,weatherlink.com 1.10,2013-01-17 14:11:00,
2013-01-17 09:26:00,3.1,-2.0,30.32,SW,231,0.0,-999.0,79,-99.99,,,0.00,weatherlink.com 1.10,2013-01-17 14:26:00,
2013-01-17 09:41:00,4.0,-1.0,30.32,SW,231,0.0,-999.0,78,-99.99,,,0.00,weatherlink.com 1.10,2013-01-17 14:41:00,
2013-01-17 09:56:00,4.7,-1.0,30.33,SW,230,0.0,-999.0,77,-99.99,,,0.00,weatherlink.com 1.10,2013-01-17 14:56:00,
2013-01-17 10:11:00,5.2,-1.0,30.32,SSW,209,0.0,-999.0,76,-99.99,,,0.00,weatherlink.com 1.10,2013-01-17 15:11:00,
2013-01-17 10:26:00,5.9,0.0,30.32,SSE,155,0.0,-999.0,76,-99.99,,,0.00,weatherlink.com 1.10,2013-01-17 15:26:00,
2013-01-17 10:41:00,6.8,1.0,30.32,West,270,1.0,-999.0,75,-99.99,,,0.00,weatherlink.com 1.10,2013-01-17 15:41:00,
2013-01-17 10:56:00,7.7,1.0,30.33,SSW,211,0.0,-999.0,73,-99.99,,,0.00,weatherlink.com 1.10,2013-01-17 15:56:00,
2013-01-17 11:11:00,8.1,1.0,30.33,South,173,0.0,-999.0,72,-99.99,,,0.00,weatherlink.com 1.10,2013-01-17 16:11:00,
2013-01-17 11:26:00,8.6,1.0,30.33,SW,217,1.0,-999.0,70,-99.99,,,0.00,weatherlink.com 1.10,2013-01-17 16:26:00,
2013-01-17 11:41:00,9.7,1.0,30.32,SW,219,1.0,-999.0,68,-99.99,,,0.00,weatherlink.com 1.10,2013-01-17 16:41:00,
2013-01-17 11:56:00,9.8,1.0,30.32,NW,310,0.0,-999.0,67,-99.99,,,0.00,weatherlink.com 1.10,2013-01-17 16:56:00,
2013-01-17 12:11:00,10.3,2.0,30.32,SSW,203,1.0,-999.0,69,-99.99,,,0.00,weatherlink.com 1.10,2013-01-17 17:11:00,
2013-01-17 12:26:00,10.3,2.0,30.31,SW,229,0.0,-999.0,69,-99.99,,,0.00,weatherlink.com 1.10,2013-01-17 17:26:00,
2013-01-17 12:41:00,10.0,3.0,30.30,SSW,208,0.0,-999.0,74,-99.99,,,0.00,weatherlink.com 1.10,2013-01-17 17:41:00,
2013-01-17 12:56:00,10.9,4.0,30.30,SSW,194,2.0,-999.0,72,-99.99,,,0.00,weatherlink.com 1.10,2013-01-17 17:56:00,
2013-01-17 13:11:00,11.2,3.0,30.30,SW,234,0.0,-999.0,69,-99.99,,,0.00,weatherlink.com 1.10,2013-01-17 18:11:00,
2013-01-17 13:26:00,11.3,2.0,30.30,SW,225,1.0,-999.0,65,-99.99,,,0.00,weatherlink.com 1.10,2013-01-17 18:26:00,
2013-01-17 13:41:00,11.6,2.0,30.29,SW,227,0.0,-999.0,64,-99.99,,,0.00,weatherlink.com 1.10,2013-01-17 18:41:00,
2013-01-17 13:56:00,11.7,1.0,30.29,NE,44,1.0,-999.0,63,-99.99,,,0.00,weatherlink.com 1.10,2013-01-17 18:56:00,
2013-01-17 14:11:00,10.9,4.0,30.29,WSW,257,0.0,-999.0,73,-99.99,,,0.00,weatherlink.com 1.10,2013-01-17 19:11:00,
2013-01-17 14:26:00,10.2,4.0,30.30,SSW,211,1.0,-999.0,75,-99.99,,,0.00,weatherlink.com 1.10,2013-01-17 19:26:00,
2013-01-17 14:41:00,10.4,3.0,30.30,West,263,0.0,-999.0,71,-99.99,,,0.00,weatherlink.com 1.10,2013-01-17 19:41:00,
2013-01-17 14:58:00,11.1,4.0,30.30,NNE,30,1.0,-999.0,72,-99.99,,,0.00,weatherlink.com 1.10,2013-01-17 19:58:00,
2013-01-17 15:11:00,11.5,0.0,30.30,NNW,327,0.0,-999.0,61,-99.99,,,0.00,weatherlink.com 1.10,2013-01-17 20:11:00,
2013-01-17 15:26:00,11.7,1.0,30.31,SSW,206,1.0,-999.0,61,-99.99,,,0.00,weatherlink.com 1.10,2013-01-17 20:26:00,
2013-01-17 15:41:00,10.5,2.0,30.31,NW,309,0.0,-999.0,67,-99.99,,,0.00,weatherlink.com 1.10,2013-01-17 20:41:00,
2013-01-17 15:56:00,9.9,0.0,30.31,SW,219,1.0,-999.0,64,-99.99,,,0.00,weatherlink.com 1.10,2013-01-17 20:56:00,
2013-01-17 16:11:00,10.3,2.0,30.32,WNW,300,0.0,-999.0,68,-99.99,,,0.00,weatherlink.com 1.10,2013-01-17 21:11:00,
2013-01-17 16:26:00,9.6,2.0,30.32,NW,315,0.0,-999.0,70,-99.99,,,0.00,weatherlink.com 1.10,2013-01-17 21:26:00,
2013-01-17 16:41:00,9.1,1.0,30.33,SW,219,0.0,-999.0,69,-99.99,,,0.00,weatherlink.com 1.10,2013-01-17 21:41:00,
2013-01-17 16:56:00,9.1,1.0,30.33,SW,234,0.0,-999.0,70,-99.99,,,0.00,weatherlink.com 1.10,2013-01-17 21:56:00,
2013-01-17 17:11:00,8.9,2.0,30.34,WSW,244,0.0,-999.0,72,-99.99,,,0.00,weatherlink.com 1.10,2013-01-17 22:11:00,
2013-01-17 17:26:00,8.5,2.0,30.34,SSW,207,0.0,-999.0,73,-99.99,,,0.00,weatherlink.com 1.10,2013-01-17 22:26:00,
2013-01-17 17:41:00,8.2,1.0,30.35,West,261,0.0,-999.0,73,-99.99,,,0.00,weatherlink.com 1.10,2013-01-17 22:41:00,
2013-01-17 17:56:00,8.0,0.0,30.35,NW,320,0.0,-999.0,71,-99.99,,,0.00,weatherlink.com 1.10,2013-01-17 22:56:00,
2013-01-17 18:11:00,8.0,1.0,30.36,NW,315,0.0,-999.0,73,-99.99,,,0.00,weatherlink.com 1.10,2013-01-17 23:11:00,
2013-01-17 18:26:00,7.9,2.0,30.36,SSE,154,0.0,-999.0,76,-99.99,,,0.00,weatherlink.com 1.10,2013-01-17 23:26:00,
2013-01-17 18:41:00,7.7,2.0,30.36,SW,221,0.0,-999.0,78,-99.99,,,0.00,weatherlink.com 1.10,2013-01-17 23:41:00,
2013-01-17 18:56:00,7.5,2.0,30.37,SW,221,0.0,-999.0,78,-99.99,,,0.00,weatherlink.com 1.10,2013-01-17 23:56:00,
2013-01-17 19:11:00,7.2,2.0,30.37,SW,221,0.0,-999.0,79,-99.99,,,0.00,weatherlink.com 1.10,2013-01-18 00:11:00,
2013-01-17 19:26:00,6.9,2.0,30.38,SW,221,0.0,-999.0,79,-99.99,,,0.00,weatherlink.com 1.10,2013-01-18 00:26:00,
2013-01-17 19:41:00,6.7,1.0,30.38,SW,221,0.0,-999.0,78,-99.99,,,0.00,weatherlink.com 1.10,2013-01-18 00:41:00,
2013-01-17 19:56:00,6.9,1.0,30.38,SW,221,0.0,-999.0,77,-99.99,,,0.00,weatherlink.com 1.10,2013-01-18 00:56:00,
2013-01-17 20:11:00,6.9,1.0,30.37,SW,221,0.0,-999.0,76,-99.99,,,0.00,weatherlink.com 1.10,2013-01-18 01:11:00,
2013-01-17 20:26:00,6.9,1.0,30.38,SW,221,0.0,-999.0,77,-99.99,,,0.00,weatherlink.com 1.10,2013-01-18 01:26:00,
2013-01-17 20:41:00,6.7,1.0,30.37,SW,221,0.0,-999.0,77,-99.99,,,0.00,weatherlink.com 1.10,2013-01-18 01:41:00,
2013-01-17 20:56:00,6.5,1.0,30.38,SW,221,0.0,-999.0,77,-99.99,,,0.00,weatherlink.com 1.10,2013-01-18 01:56:00,
2013-01-17 21:11:00,6.4,1.0,30.37,SW,221,0.0,-999.0,77,-99.99,,,0.00,weatherlink.com 1.10,2013-01-18 02:11:00,
2013-01-17 21:26:00,6.3,1.0,30.37,SW,221,0.0,-999.0,78,-99.99,,,0.00,weatherlink.com 1.10,2013-01-18 02:26:00,
2013-01-17 21:41:00,6.1,1.0,30.37,SSW,192,0.0,-999.0,79,-99.99,,,0.00,weatherlink.com 1.10,2013-01-18 02:41:00,
2013-01-17 21:56:00,6.3,1.0,30.37,WSW,252,0.0,-999.0,79,-99.99,,,0.00,weatherlink.com 1.10,2013-01-18 02:56:00,
2013-01-17 22:11:00,6.6,2.0,30.37,SSW,197,0.0,-999.0,80,-99.99,,,0.00,weatherlink.com 1.10,2013-01-18 03:11:00,
2013-01-17 22:26:00,6.9,2.0,30.37,SW,223,0.0,-999.0,79,-99.99,,,0.00,weatherlink.com 1.10,2013-01-18 03:26:00,
2013-01-17 22:41:00,7.0,2.0,30.37,SSW,211,0.0,-999.0,80,-99.99,,,0.00,weatherlink.com 1.10,2013-01-18 03:41:00,
2013-01-17 22:56:00,7.2,2.0,30.37,SSW,211,0.0,-999.0,78,-99.99,,,0.00,weatherlink.com 1.10,2013-01-18 03:56:00,
2013-01-17 23:11:00,7.1,2.0,30.36,SSW,210,0.0,-999.0,78,-99.99,,,0.00,weatherlink.com 1.10,2013-01-18 04:11:00,
2013-01-17 23:26:00,6.9,1.0,30.36,SSE,158,0.0,-999.0,77,-99.99,,,0.00,weatherlink.com 1.10,2013-01-18 04:26:00,
2013-01-17 23:41:00,6.6,1.0,30.36,South,185,0.0,-999.0,78,-99.99,,,0.00,weatherlink.com 1.10,2013-01-18 04:41:00,
2013-01-17 23:56:00,6.7,1.0,30.36,South,175,0.0,-999.0,78,-99.99,,,0.00,weatherlink.com 1.10,2013-01-18 04:56:00,